Theta_e
303 302 301 301 299 297 295 295 296 296 298 297 295 293 293 293 292 292 292 293 292 292 291 290 290 290 291 292 292 292 293 293 293 294 294 295 295 295 295 295 297 297 298
304 301 300 299 296 295 295 295 295 294 294 294 293 293 292 292 292 292 291 290 290 289 289 289 289 290 290 290 291 291 292 292 292 292 292 293 294 295 295 296 296 296 296
304 301 298 296 294 294 294 294 294 294 293 293 292 292 292 292 291 290 290 289 289 289 289 289 289 289 289 290 290 289 289 289 290 290 290 291 292 292 293 294 295 295 295
302 298 295 294 293 295 294 294 294 293 293 292 292 292 292 290 289 289 289 289 288 288 287 287 287 287 287 287 287 287 287 287 287 288 288 289 290 291 292 292 292 292 293
300 295 294 295 295 295 294 294 295 294 293 293 292 290 289 288 288 288 288 287 286 285 285 285 285 285 286 286 286 286 286 285 285 285 286 286 287 288 289 290 292 293 294
300 298 298 296 296 295 296 293 294 294 292 290 289 288 287 287 287 287 285 284 283 283 283 283 283 283 283 283 283 284 284 285 284 284 285 285 285 285 286 288 290 291 291
299 297 298 297 295 294 294 294 294 291 289 288 287 287 287 287 286 285 284 282 283 283 283 283 282 282 283 283 283 283 284 284 284 284 284 285 285 285 285 286 288 289 289
299 297 297 297 295 294 292 290 289 288 287 287 286 286 286 285 285 283 282 282 283 283 283 283 283 283 283 283 283 283 283 283 283 284 284 284 285 285 285 285 286 286 287
291 291 291 292 291 289 289 288 287 286 286 285 285 285 284 283 283 282 282 282 282 282 282 282 282 283 283 283 284 284 284 284 284 284 284 284 285 285 286 286 285 285 285
290 290 290 289 288 288 287 287 285 285 285 285 284 283 282 281 281 281 282 282 282 281 282 282 282 282 282 283 283 283 284 284 284 285 285 285 285 285 286 287 286 286 286
290 289 288 288 287 287 286 285 285 284 284 283 282 282 281 281 280 281 281 282 281 281 281 282 282 282 283 283 283 283 284 284 284 285 284 285 285 285 285 286 287 287 287
288 288 287 287 287 285 285 284 284 283 282 281 281 281 281 280 280 280 281 281 281 282 283 282 283 283 283 284 284 283 283 283 284 284 284 285 285 285 285 286 286 287 287
287 286 286 286 285 284 284 284 283 282 281 281 281 281 280 280 280 280 280 281 282 283 282 282 282 282 281 282 283 283 284 284 284 284 284 284 285 285 285 286 286 286 287
287 286 286 285 283 284 284 283 282 281 282 281 281 280 280 279 279 279 281 282 283 283 281 280 280 280 280 280 281 282 282 283 284 284 284 284 283 284 285 286 286 286 286
286 285 284 284 283 283 282 282 281 281 281 281 280 280 279 278 279 281 281 282 283 282 282 280 279 279 279 279 279 280 281 283 285 285 285 284 283 283 284 285 285 286 287
287 286 285 284 284 282 282 282 282 281 280 280 280 279 278 279 280 280 280 281 281 281 280 280 278 278 278 279 278 279 280 281 282 285 284 284 284 284 285 286 286 287 285
287 286 285 285 283 282 282 282 280 280 279 279 279 278 278 278 278 278 278 279 279 279 280 279 278 278 278 278 278 278 278 279 281 283 286 286 285 286 287 286 286 285 284
286 286 285 284 282 282 282 281 280 279 278 278 277 277 277 277 277 276 276 277 277 277 277 277 277 277 278 278 277 277 277 278 279 279 281 283 285 285 285 284 284 283 281
285 284 283 283 283 282 281 280 280 278 278 278 276 276 275 275 275 275 275 274 274 274 274 275 275 275 276 277 277 277 277 277 277 278 279 280 282 284 283 284 283 282 281
284 284 283 282 282 282 280 280 279 278 277 277 275 275 274 274 274 273 273 272 272 272 273 273 273 274 275 276 277 277 277 277 277 277 278 278 279 280 281 281 281 281 280
284 284 282 282 282 280 280 279 279 277 277 276 275 274 274 273 273 272 272 271 271 271 271 272 273 273 274 275 276 277 277 277 277 277 277 277 277 277 277 278 278 278 278
283 284 282 281 281 280 280 279 278 277 276 276 274 274 273 273 272 272 271 271 270 270 271 271 272 273 273 274 275 276 277 277 277 276 276 276 277 277 277 277 277 277 277
283 282 281 281 280 280 279 279 278 277 276 275 274 273 272 272 272 271 271 270 270 269 270 270 271 273 274 275 275 276 276 276 276 277 276 276 276 276 276 276 276 276 276
283 282 281 281 280 279 278 278 277 277 276 274 274 273 272 272 271 271 271 270 269 269 268 269 269 270 272 273 274 275 276 276 276 276 276 276 276 276 276 276 276 276 276
282 281 281 280 280 279 278 277 277 276 275 274 273 273 272 271 271 271 270 270 269 268 268 268 268 269 270 271 272 274 275 275 275 275 275 275 275 276 276 276 276 275 275
282 282 281 280 280 279 278 276 276 276 275 274 273 273 272 271 271 271 270 270 269 269 268 268 268 268 268 269 270 272 273 273 274 274 274 273 274 274 274 274 275 275 275
Wind_Speed
25 18 15 11 10 16 20 16 11 6 1 9 3 4 9 11 15 20 22 23 23 24 25 28 30 30 30 29 29 31 29 24 14 21 23 22 22 23 27 29 29 27 24
31 23 19 14 15 17 16 12 9 9 7 5 4 8 13 17 17 19 21 24 27 29 30 30 32 29 28 28 26 28 26 24 22 15 20 22 21 16 16 20 23 25 28
26 25 18 16 18 17 14 10 8 3 5 6 10 14 18 19 23 24 25 27 27 28 28 27 24 21 21 20 17 18 20 21 24 17 13 16 19 21 21 23 23 25 28
24 16 13 11 14 9 9 7 3 6 7 9 14 17 18 20 22 22 21 20 19 17 16 19 21 22 24 25 25 24 21 21 21 21 21 18 18 18 20 18 22 27 32
17 6 7 9 6 5 5 5 16 11 12 12 14 14 16 16 19 17 14 12 16 22 26 28 29 28 25 25 24 26 25 26 27 27 26 25 25 22 20 20 17 20 26
13 4 5 4 4 2 11 9 14 15 10 10 12 14 18 18 15 9 15 22 27 29 29 27 28 29 31 33 31 30 28 27 25 23 22 20 23 20 20 22 20 12 7
3 3 6 7 7 8 9 12 14 9 9 12 16 17 16 10 11 19 21 25 26 26 27 27 27 26 26 28 30 30 30 31 32 30 27 26 25 21 20 21 21 18 18
9 8 8 7 8 10 8 8 9 12 15 16 15 13 12 15 15 22 24 26 27 28 28 29 28 29 30 28 28 27 27 30 30 29 30 31 31 27 26 27 26 27 28
14 13 14 15 14 11 13 12 14 15 15 16 14 12 11 18 23 22 23 24 27 27 27 26 26 27 29 29 30 28 30 30 30 30 33 34 31 29 28 27 22 19 12
10 9 8 8 9 10 12 13 13 16 15 14 8 14 20 24 24 21 21 22 22 25 26 26 27 29 31 32 31 29 28 28 27 27 26 26 30 33 34 34 26 19 15
11 10 10 11 13 13 12 14 15 16 9 14 17 21 22 20 23 21 21 23 24 26 26 26 26 27 28 30 29 27 28 30 27 26 24 25 25 27 27 29 32 28 19
10 10 12 13 13 11 14 15 14 9 13 18 20 22 23 23 22 21 21 23 25 28 27 26 27 26 26 23 25 29 27 29 27 25 23 22 23 24 25 25 28 29 31
11 12 13 12 12 14 14 13 8 14 16 17 19 21 23 23 25 23 23 25 25 26 20 21 21 20 19 16 15 15 17 20 21 20 21 22 21 23 25 25 25 25 26
13 13 12 13 12 12 12 10 11 17 16 17 20 18 18 21 21 25 27 22 24 14 18 20 17 18 16 15 16 15 14 16 19 21 22 24 21 19 21 25 24 22 20
12 13 13 9 10 12 13 9 14 15 13 17 19 15 17 20 22 24 21 22 17 13 14 19 20 21 19 19 20 19 19 16 14 15 16 16 16 17 19 20 19 17 16
14 14 11 10 12 13 12 14 12 10 13 13 13 14 21 18 20 19 19 14 14 13 14 12 16 17 17 17 19 20 19 20 18 10 6 11 13 15 15 17 19 14 12
15 15 15 14 9 12 13 13 15 11 14 13 12 15 17 18 17 17 17 11 12 13 13 15 16 17 18 18 18 18 18 22 18 13 3 3 11 13 13 14 12 12 8
14 16 17 8 9 11 9 9 10 12 15 16 14 15 16 16 17 17 17 12 16 17 17 15 15 18 17 18 20 19 21 23 24 21 14 10 4 5 6 10 12 10 10
11 7 6 7 10 9 8 10 8 10 12 12 15 16 17 14 15 16 16 17 14 14 16 16 18 18 20 19 20 22 22 22 21 21 20 15 12 6 7 5 6 7 10
10 4 6 11 11 7 7 8 7 8 10 9 11 13 15 15 16 18 18 18 17 16 17 16 17 17 19 19 20 21 22 23 22 21 19 18 15 11 9 7 8 8 7
9 5 8 11 10 7 6 6 5 7 8 8 9 11 11 12 13 14 16 17 17 16 16 16 17 18 18 19 19 20 20 21 20 18 19 17 16 15 12 11 11 10 11
7 4 7 7 7 8 6 6 5 6 7 7 7 9 10 11 12 13 14 14 14 15 15 15 16 17 18 18 19 19 19 19 18 17 15 15 15 14 12 13 13 13 13
6 5 7 6 7 6 6 6 5 4 5 5 6 8 9 10 10 11 12 14 14 15 15 16 17 17 17 18 18 18 19 17 14 12 13 13 14 14 13 13 12 13 13
5 6 7 6 6 5 5 4 4 2 3 5 5 7 7 8 9 10 11 11 11 13 14 15 15 16 16 17 18 17 15 15 15 13 11 12 13 13 14 14 12 12 12
4 8 6 6 5 4 3 3 4 2 1 4 4 4 6 7 8 9 9 10 12 13 14 15 15 15 16 16 16 16 14 12 13 14 14 13 13 13 14 14 12 11 11
6 7 8 6 5 4 4 4 3 2 1 2 2 4 3 5 7 8 8 10 11 12 13 14 15 15 17 17 16 14 14 14 14 12 12 13 14 15 15 15 15 12 9
Wind_Direction
346 310 263 244 189 156 144 143 142 131 21 7 334 260 272 278 286 287 291 297 296 295 295 295 293 293 291 288 286 285 281 279 278 285 288 294 297 298 297 298 294 292 294
340 312 260 218 181 161 146 135 126 106 38 17 266 291 298 296 300 300 300 302 302 299 298 294 292 290 287 288 283 281 280 283 284 288 290 290 289 289 293 298 300 298 290
330 308 236 198 176 160 149 146 137 80 8 337 318 304 301 300 306 304 301 300 298 296 294 293 291 291 286 283 279 281 284 284 286 291 286 286 284 289 291 289 292 293 295
333 306 229 198 178 169 142 132 73 3 327 313 304 302 301 305 305 307 305 298 293 293 294 293 290 287 285 287 289 289 289 287 283 282 282 277 275 278 284 290 295 292 293
321 251 182 150 144 142 125 30 333 307 289 288 299 301 306 311 314 304 296 305 310 306 299 296 293 289 283 279 277 279 279 277 276 276 275 276 270 269 270 281 274 288 289
297 180 140 153 140 128 321 313 268 285 282 300 311 320 319 312 298 297 322 317 312 306 299 295 291 287 282 280 278 276 269 266 267 267 272 267 271 267 264 259 261 271 276
21 312 290 277 244 244 257 277 283 294 317 323 326 323 314 308 309 312 317 315 306 300 296 292 290 285 281 279 281 279 274 267 261 260 262 261 265 259 254 256 248 250 252
334 325 325 309 322 330 318 316 335 335 332 331 330 328 316 313 316 318 319 310 303 301 297 293 287 285 283 280 277 270 270 267 265 258 254 257 257 254 247 246 248 251 256
66 46 20 4 335 328 329 341 340 336 334 333 332 336 338 323 323 317 314 310 307 300 300 292 285 282 281 281 278 264 271 265 267 262 258 257 254 252 250 243 237 237 241
26 10 340 334 355 351 340 342 340 334 335 333 352 339 333 326 324 320 316 312 304 300 297 292 288 285 282 281 277 271 267 261 265 265 262 260 257 254 250 244 236 227 227
340 344 348 347 347 343 341 341 341 334 348 341 338 334 332 331 326 323 316 312 304 299 295 295 294 294 291 282 279 276 266 270 267 266 269 262 253 251 248 245 239 235 236
348 346 345 344 342 346 342 342 346 0 350 344 338 334 334 336 333 320 315 309 307 302 298 297 300 305 307 309 285 270 272 271 267 261 256 251 248 240 241 238 239 242 238
348 344 343 341 346 346 350 350 8 355 349 343 337 326 326 330 328 325 321 318 313 309 321 320 322 324 319 321 320 299 285 274 261 251 246 253 244 237 237 241 246 247 247
343 341 340 338 346 352 356 353 345 350 342 341 337 324 320 326 322 325 319 325 329 334 348 344 342 350 347 346 345 342 323 292 264 249 241 241 240 238 237 234 236 246 248
342 340 332 336 344 345 340 338 343 345 341 337 334 338 339 325 322 324 333 330 343 342 336 1 360 357 349 350 349 354 356 353 312 305 239 226 225 228 239 234 236 239 240
332 334 337 326 326 334 335 338 346 340 342 339 336 342 333 328 333 342 341 343 0 11 12 356 4 354 351 351 352 349 354 356 354 302 264 236 230 233 230 228 233 236 218
324 323 316 309 315 333 338 347 342 349 351 354 348 342 343 343 353 356 357 6 19 28 9 8 1 358 359 357 356 357 352 359 9 15 338 261 244 226 236 215 216 200 159
323 325 320 317 329 325 343 355 350 351 352 360 3 353 354 359 6 11 14 32 20 23 13 8 4 3 0 3 5 6 8 14 22 21 34 35 71 157 151 160 173 157 148
331 3 19 349 330 330 342 347 355 358 357 1 4 4 7 9 16 21 30 32 9 7 8 9 15 16 14 9 16 25 27 24 25 30 34 34 39 69 86 98 117 142 148
337 336 352 350 349 354 349 344 356 360 5 16 14 8 9 20 19 20 28 26 21 12 21 22 23 27 30 29 29 28 29 31 30 33 36 39 44 61 72 87 108 124 113
332 330 349 348 354 358 355 355 352 1 12 22 22 18 19 30 23 27 22 26 24 24 24 30 33 33 32 34 35 36 33 33 34 35 40 45 51 60 74 87 97 106 112
328 325 353 356 0 349 356 350 355 3 16 29 25 25 25 35 37 34 34 33 32 34 38 37 39 39 36 35 37 38 37 36 31 32 41 50 56 64 74 85 96 106 116
339 350 352 335 345 352 355 358 2 357 21 34 33 35 37 39 42 43 41 35 34 33 35 40 42 41 42 43 43 43 40 34 33 33 42 50 60 66 71 75 83 88 96
302 0 339 342 347 360 5 17 5 7 24 35 42 43 45 50 47 48 44 40 34 37 38 40 41 39 39 43 44 45 46 43 41 43 46 56 64 71 75 75 77 89 93
339 345 341 329 327 341 353 7 13 15 41 32 45 52 54 53 53 50 46 44 45 44 41 42 42 43 43 44 46 48 49 48 46 48 55 60 66 71 71 75 85 80 87
321 332 330 307 304 320 328 350 4 2 25 42 48 59 61 60 58 53 46 44 43 42 41 42 43 44 46 46 47 48 52 55 58 59 60 66 68 68 67 68 71 76 80